COSMOS 1275 DEB

Satellite information

Favourite Embed

Satellite Type and Status

DEBRISIN ORBIT

Key statistics

Satellite COSMOS 1275 DEB at a glance.

Uptime

16219

Days in orbit

Revolutions

≈ 13.9

Per day

Orbit

LEO

Low Earth Orbit

Inclination

82.9

Latest

Satellite identification and parameters

Extended collection of information and parameters for COSMOS 1275 DEB.

Object identification

Identified? True

Debris? True

Object name: COSMOS 1275 DEB

International designator: 1981-053DM

Object number (NORAD): 12768

Object ID (CCSDS): 12768

Country: COMMONWEALTH OF INDEPENDENT STATES (CIS)

Current information (Y/N): Y

RCS size: SMALL

Orbital parameters

Period: 103.803 minutes

Inclination: 82.9275 deg

SMA: 7316.433 km

Apoapsis: 975.701 km

Periapsis: 900.896 km

RAAN: 274.9741 deg

Eccentricy: 0.00511214

Argument of periapsis: 47.5355 deg

Mean anomaly: 15.8349 deg

Mean motion: 13.8724654 rev/day

Mean motion (dot): 0.00000901 rev/day2

B* drag term: 0.00074589755 1/REarth

Two-line elements (TLE)

Creation date: Oct. 30, 2025, 3:32 a.m.

Reference frame: TEME

Reference center: EARTH

Epoch: Oct. 29, 2025, 9:43 p.m. UTC

TLE line 0: 0 COSMOS 1275 DEB

TLE line 1: 1 12768U 81053DM 25302.90497372 .00000901 00000-0 74590-3 0 9992

TLE line 2: 2 12768 82.9275 274.9741 0051121 47.5355 15.8349 13.87246540227665

Live tracking on map

Real-time ground track for satellite COSMOS 1275 DEB.

In-orbit conjunctions

A list of the most updated potential collisions computed for object COSMOS 1275 DEB.

Target Orbit TCA Probability of collision Miss distance Type
COSMOS 2230 LEO 2025-09-11 20:34:18 0.1715821 4.0 (m) PAYLOAD

Associated space launch

Navigation satellite providing location information for the Tsiklon-B navigation system

COSMOS 1275 DEB was lifted into orbit during the mission ‘Kosmos-3M | Parus 27’, on board a Kosmos-3M space rocket.

The launch took place on June 4, 1981, 3:41 p.m. from 132/2.

For more information about the launch, click the button.

Launch to space Kosmos-3M | Parus 27
Kosmos-3M | Parus 27

Agency: N/A

Status: Launch Successful

Launch date: June 4, 1981, 3:41 p.m. UTC

Rocket: Kosmos-3M

Launch pad: 132/2

Location: Plesetsk Cosmodrome, Russian Federation

...

Latest news about this satellite

There are no fresh news available about this satellite. Check back as we update our databases every day.


Newsletter sign-up

Weekly statistics, charts and insights to help you stay on top of the space industry.